"Time","Temp","Dewpoint","Humidity","Pressure","Direction","Speed","Gust","Precip","PrecipRate"
"00:04:59","73.7","68.6","84","29.91","153","0.8","3.6","0.00","0.00"
"00:09:57","73.6","68.5","84","29.91","153","0","1.2","0.00","0.00"
"00:14:57","73.5","68.4","84","29.92","153","0.1","1.2","0.00","0.00"
"00:19:59","73.3","68.4","84.8","29.92","153","0","0","0.00","0.00"
"00:24:56","73.1","68.3","85","29.92","153","0","1.2","0.00","0.00"
"00:29:57","72.9","68.2","85.2","29.93","153","0","1.2","0.00","0.00"
"00:34:59","72.8","68.4","86","29.93","153","0","0","0.00","0.00"
"00:39:57","72.6","68.2","86","29.93","153","0.1","1.2","0.00","0.00"
"00:44:59","72.4","68.3","86.9","29.94","153","0","0","0.00","0.00"
"00:49:57","72.2","68.1","87","29.94","153","0","1.2","0.00","0.00"
"00:54:59","72.1","68","87","29.94","153","0","0","0.00","0.00"
"00:59:57","72.1","68.3","88","29.94","153","0","0","0.00","0.00"
"01:04:58","72.1","68.3","88","29.94","153","0","0","0.00","0.00"
"01:09:57","72.2","68.4","88","29.94","153","0","0","0.00","0.00"
"01:14:59","72.3","68.5","88","29.94","153","0","0","0.00","0.00"
"01:19:57","72.3","68.5","88","29.94","153","0","1.2","0.00","0.00"
"01:24:58","72.3","68.5","88","29.94","153","0","1.2","0.00","0.00"
"01:29:56","72.2","68.4","88","29.94","153","0.2","2.4","0.00","0.00"
"01:34:57","72.3","68.5","88","29.94","153","0.3","1.2","0.00","0.00"
"01:39:56","72.3","68.5","88","29.94","153","0.3","2.4","0.00","0.00"
"01:44:57","72.4","68.9","88.6","29.94","153","0.9","4.8","0.00","0.00"
"01:49:58","72.7","69.3","89","29.92","142","1.7","4.8","0.00","0.00"
"01:54:56","72.8","69.4","89","29.92","147","1.2","3.6","0.00","0.00"
"01:59:57","72.9","69.4","88.8","29.92","148","0.5","2.4","0.00","0.00"
"02:04:58","72.9","69.5","88.9","29.92","148","0.2","2.4","0.00","0.00"
"02:09:57","72.9","69.3","88.5","29.92","148","0.1","1.2","0.00","0.00"
"02:14:59","72.8","69.4","88.9","29.92","147","0.3","2.4","0.00","0.00"
"02:19:56","72.7","69.3","89","29.90","147","0.5","2.3","0.00","0.00"
"02:24:58","72.7","69.3","89","29.90","147","1.3","3.6","0.00","0.00"
"02:29:59","72.7","69.3","89","29.90","148","0.8","4.8","0.00","0.00"
"02:34:56","72.6","69.2","89.1","29.90","148","0.8","3.6","0.00","0.00"
"02:39:59","72.5","69.3","89.7","29.90","148","1.7","3.6","0.00","0.00"
"02:44:56","72.5","69.4","90","29.91","148","0.4","3.5","0.00","0.00"
"02:49:58","72.5","69.4","90","29.91","148","0.7","4.8","0.00","0.00"
"02:54:59","72.5","69.4","90","29.91","148","0.2","2.4","0.00","0.00"
"02:59:57","72.4","69.3","90","29.91","148","0","0","0.00","0.00"
"03:04:59","72.2","69.1","90","29.91","148","0","0","0.00","0.00"
"03:09:58","72.1","69","90","29.91","148","0","0","0.00","0.00"
"03:14:57","72","69","90.4","29.91","148","0.4","2.4","0.00","0.00"
"03:19:59","71.9","69.1","91","29.89","148","0.1","1.2","0.00","0.00"
"03:24:56","71.9","69.1","91","29.89","148","0.2","1.2","0.00","0.00"
"03:29:57","71.9","69.1","91","29.89","148","0.6","4.8","0.00","0.00"
"03:34:58","71.9","69.1","91","29.87","148","0.7","3.6","0.00","0.00"
"03:39:57","71.9","69.1","91","29.87","150","1.3","4.8","0.00","0.00"
"03:44:56","71.9","69.1","91","29.89","157","1.7","6","0.00","0.00"
"03:49:57","72","69.2","91","29.89","157","1.7","5.8","0.00","0.00"
"03:54:56","72","69.2","91","29.89","144","0.5","3.5","0.00","0.00"
"03:59:56","72.1","69.3","91","29.90","144","0.4","2.4","0.00","0.00"
"04:04:58","72.1","69.3","91","29.90","145","0.6","2.4","0.00","0.00"
"04:09:57","72","69.2","91","29.90","145","0.2","2.4","0.00","0.00"
"04:14:56","72","69.2","91","29.90","145","0.1","1.2","0.00","0.00"
"04:19:57","72","69.2","91","29.89","145","0.3","2.4","0.00","0.00"
"04:24:56","71.9","69.1","91","29.89","145","0.5","3.6","0.00","0.00"
"04:29:59","71.9","69.1","91","29.89","145","1.5","3.6","0.00","0.00"
"04:34:56","71.8","69","91","29.89","145","0.4","2.4","0.00","0.00"
"04:39:59","71.8","69","91","29.89","145","0.1","2.4","0.00","0.00"
"04:44:56","71.7","68.9","91","29.89","145","1.2","3.6","0.00","0.00"
"04:49:58","71.7","68.9","91","29.89","145","0.6","2.4","0.00","0.00"
"04:54:59","71.7","68.9","91","29.89","145","0.2","2.4","0.00","0.00"
"04:59:57","71.7","69.1","91.6","29.90","144","0.4","2.4","0.00","0.00"
"05:04:57","71.6","69.2","92","29.90","144","0","0","0.00","0.00"
"05:09:56","71.7","69.3","92","29.90","144","0.1","1.2","0.00","0.00"
"05:14:57","71.7","69.3","92","29.91","144","0.4","1.2","0.00","0.00"
"05:19:58","71.7","69.3","92","29.91","145","0.7","2.4","0.00","0.00"
"05:24:57","71.6","69.2","92","29.91","145","0.6","2.4","0.00","0.00"
"05:29:58","71.6","69.2","92","29.91","145","0.2","2.4","0.00","0.00"
"05:34:56","71.6","69.2","92","29.91","145","0","1.2","0.00","0.00"
"05:39:59","71.6","69.2","92.1","29.91","145","0.1","1.2","0.00","0.00"
"05:44:56","71.7","69.4","92.3","29.91","145","0.2","1.2","0.00","0.00"
"05:49:58","71.6","69.3","92.5","29.90","141","0.6","3.6","0.00","0.00"
"05:54:59","71.5","69.4","93","29.90","131","0.4","3.5","0.00","0.00"
"05:59:57","71.5","69.4","93","29.90","115","0","0","0.00","0.00"
"06:04:57","71.3","69.2","93","29.88","122","1.3","4.8","0.00","0.00"
"06:09:57","71.3","69.2","93","29.88","177","2","6","0.00","0.00"
"06:14:56","71.2","69.3","93.6","29.88","170","2.3","7.2","0.00","0.00"
"06:19:58","71.2","69.4","94","29.86","171","3","8.4","0.00","0.00"
"06:24:59","71.2","69.4","94","29.86","164","3.5","8.4","0.00","0.00"
"06:29:56","71.2","69.4","94","29.86","189","3.6","8.4","0.00","0.00"
"06:34:58","71.3","69.5","94","29.83","167","3.5","8.1","0.00","0.00"
"06:39:56","71.3","69.4","93.4","29.83","189","4","8.4","0.00","0.00"
"06:44:58","71.4","69.5","93.6","29.83","158","2.3","6","0.00","0.00"
"06:49:59","71.5","69.6","93.8","29.82","165","2.6","7.2","0.00","0.00"
"06:54:56","71.6","69.5","93","29.82","199","3.4","8.4","0.00","0.00"
"06:59:58","71.7","69.6","93","29.82","163","3","7.2","0.00","0.00"
"07:04:58","72","69.8","92.8","29.80","194","2.9","6","0.00","0.00"
"07:09:57","72.2","69.7","92","29.80","180","2.9","6","0.00","0.00"
"07:14:59","72.4","69.8","91.6","29.80","189","2.2","7.2","0.00","0.00"
"07:19:56","72.7","69.9","91","29.80","184","3.1","7.2","0.00","0.00"
"07:24:57","72.8","70","91","29.80","180","2.6","6.9","0.00","0.00"
"07:29:57","73","70.2","91","29.81","302","0.9","3.6","0.00","0.00"
"07:34:57","73","70.2","91","29.81","19","0.5","2.4","0.00","0.00"
"07:39:59","73.1","70.3","91","29.81","19","0","1.2","0.00","0.00"
"07:44:56","73.1","70","90","29.82","19","0.1","1.2","0.00","0.00"
"07:49:56","73.3","70.3","90.5","29.82","19","0","1.2","0.00","0.00"
"07:54:57","73.4","70.5","90.7","29.82","19","0.1","1.2","0.00","0.00"
"07:59:59","73.5","70.5","90.4","29.84","19","0.3","2.4","0.00","0.00"
"08:04:59","73.6","70.5","90","29.84","11","0.7","3.6","0.00","0.00"
"08:09:57","73.7","70.6","90","29.84","11","0.4","2.4","0.00","0.00"
"08:14:59","73.8","70.7","90","29.85","10","0.4","2.4","0.00","0.00"
"08:19:56","74","70.8","89.7","29.85","10","0.6","3.6","0.00","0.00"
"08:24:56","74.1","71","90","29.85","11","0","1.2","0.00","0.00"
"08:29:56","74.3","71.2","90","29.86","8","0.3","2.4","0.00","0.00"
"08:34:57","74.5","71.1","89.3","29.86","5","0.2","2.3","0.00","0.00"
"08:39:58","74.8","71.4","89.2","29.86","5","0.1","1.2","0.00","0.00"
"08:44:59","75.1","71.4","88.5","29.86","5","0.1","1.2","0.00","0.00"
"08:49:59","75.3","71.5","88","29.86","5","0.1","1.2","0.00","0.00"
"08:54:56","75.5","71.6","87.9","29.86","5","0.2","1.2","0.00","0.00"
"08:59:56","75.5","71.5","87.1","29.86","5","0.2","3.6","0.00","0.00"
"09:04:56","75.7","71.6","87.1","29.86","5","0.4","2.4","0.00","0.00"
"09:09:59","75.8","71.7","87","29.86","5","0.4","2.4","0.00","0.00"
"09:14:57","76","71.7","86.6","29.86","5","0.3","2.4","0.00","0.00"
"09:19:58","76.1","71.8","86.8","29.86","5","0","1.2","0.00","0.00"
"09:24:58","76.3","72.1","87","29.86","5","0.1","2.4","0.00","0.00"
"09:29:58","76.4","72","86.2","29.86","5","0.7","2.4","0.00","0.00"
"09:34:59","76.6","72.2","86.3","29.86","5","0.3","1.2","0.00","0.00"
"09:39:57","76.8","72.3","86.1","29.86","5","0.1","1.2","0.00","0.00"
"09:44:57","77","72.2","85.1","29.86","5","0","0","0.00","0.00"
"09:49:57","77.2","72.1","84.5","29.85","5","0.1","1.2","0.00","0.00"
"09:54:58","77.2","71.9","83.7","29.85","10","0.1","1.2","0.00","0.00"
"09:59:58","77.2","72","83.9","29.86","11","0","1.2","0.00","0.00"
"10:04:57","77.5","72.3","83.8","29.86","25","0.8","2.4","0.00","0.00"
"10:09:57","78.4","72.9","83.2","29.86","26","0.8","2.4","0.00","0.00"
"10:14:55","79.6","73","80.5","29.86","117","0.9","3.6","0.00","0.00"
"10:19:58","79.6","72.6","79.1","29.86","136","1.1","3.5","0.00","0.00"
"10:24:56","79.6","72.4","78.8","29.86","144","1.1","3.6","0.00","0.00"
"10:29:58","80.2","72.4","77.4","29.86","146","0.9","3.6","0.00","0.00"
"10:34:56","80.8","73","77.4","29.85","146","0.2","2.3","0.00","0.00"
"10:39:56","81.1","73","76.7","29.85","146","0.5","2.4","0.00","0.00"
"10:44:57","82","73.7","76.2","29.85","145","0.7","3.6","0.00","0.00"
"10:49:56","82.5","73.7","74.8","29.85","145","0.3","2.4","0.00","0.00"
"10:54:59","82.7","73.5","73.9","29.85","38","0.8","6","0.00","0.00"
"10:59:57","83.3","73.7","73","29.85","359","0.7","3.6","0.00","0.00"
"11:04:59","83.8","73.7","71.8","29.84","76","1","3.6","0.00","0.00"
"11:09:59","83.5","73.5","71.9","29.84","33","0.8","4.8","0.00","0.00"
"11:14:59","84","73.5","70.7","29.84","6","1.3","4.8","0.00","0.00"
"11:19:57","84.7","74","70.4","29.84","47","1.4","4.8","0.00","0.00"
"11:24:59","84.9","73.3","68.3","29.84","349","3.9","7.2","0.00","0.00"
"11:29:56","85.3","73.3","67.7","29.84","342","1.6","6.9","0.00","0.00"
"11:34:57","85.3","73.2","67.4","29.84","328","0.6","4.6","0.00","0.00"
"11:39:58","85.7","73.1","66.2","29.84","19","1.2","4.8","0.00","0.00"
"11:44:56","86.5","74.6","67.8","29.84","74","0.6","2.4","0.00","0.00"
"11:49:59","86.3","73.7","66.3","29.84","53","1.4","3.6","0.00","0.00"
"11:54:57","86.2","73.9","67","29.84","9","1.6","4.8","0.00","0.00"
"11:59:59","86.3","73.9","66.6","29.84","24","1.1","4.8","0.00","0.00"
"12:04:57","87.1","73.7","64.6","29.84","167","1.6","4.8","0.00","0.00"
"12:09:57","87.4","74.2","65.1","29.84","157","1.3","3.6","0.00","0.00"
"12:14:56","87.8","74.2","64.2","29.84","153","1.7","4.8","0.00","0.00"
"12:19:59","87.7","73.4","62.9","29.84","157","1.2","4.6","0.00","0.00"
"12:24:57","87.8","73.7","63.2","29.84","133","2.6","4.8","0.00","0.00"
"12:29:56","87.7","73.7","63.3","29.84","116","1.1","4.6","0.00","0.00"
"12:34:58","88.5","73.8","62","29.83","44","1","3.6","0.00","0.00"
"12:39:58","88.4","73","60.6","29.83","281","1.2","3.6","0.00","0.00"
"12:44:56","88.8","73.8","61.4","29.83","246","1.1","2.4","0.00","0.00"
"12:49:59","89.1","73.2","59.7","29.83","241","2.7","4.8","0.00","0.00"
"12:54:57","89.6","73.6","59.5","29.83","213","3.1","6","0.00","0.00"
"12:59:56","90","73.5","58.5","29.83","207","1.9","5.8","0.00","0.00"
"13:04:57","89.9","73.1","57.9","29.82","230","2.6","7.2","0.00","0.00"
"13:09:58","89.8","73.2","58.4","29.82","196","1.1","3.6","0.00","0.00"
"13:14:58","89.8","73.7","59.3","29.82","158","2.2","3.6","0.00","0.00"
"13:19:56","90.2","73.9","59","29.82","165","1.3","3.6","0.00","0.00"
"13:24:59","90.1","73.4","58.2","29.82","163","1.5","6","0.00","0.00"
"13:29:59","90.2","74","59.2","29.82","131","1.3","5.8","0.00","0.00"
"13:34:57","91","73.9","57.6","29.82","23","1.7","4.6","0.00","0.00"
"13:39:57","90.8","73.5","57.2","29.82","49","0.9","2.4","0.00","0.00"
"13:44:59","91.7","74.4","57.2","29.82","316","1.5","4.8","0.00","0.00"
"13:49:58","92","73.2","54.5","29.82","226","3.1","6","0.00","0.00"
"13:54:56","92.6","73.9","54.6","29.82","276","1.4","6","0.00","0.00"
"13:59:58","92.8","73.6","53.9","29.82","348","5","10.8","0.00","0.00"
"14:04:56","92.8","73.9","54.2","29.81","333","1.3","6.9","0.00","0.00"
"14:09:56","93.2","74.6","54.8","29.81","188","2.4","6","0.00","0.00"
"14:14:56","94.2","74.1","52.3","29.81","175","4","10.8","0.00","0.00"
"14:19:58","94.2","73.9","52","29.80","186","4.3","10.8","0.00","0.00"
"14:24:56","94.4","74.4","52.7","29.80","196","3.1","10.4","0.00","0.00"
"14:29:58","95.4","75","52","29.80","188","3.1","10.8","0.00","0.00"
"14:34:57","95.1","74","50.8","29.80","186","4.1","10.4","0.00","0.00"
"14:39:56","95.6","75","51.7","29.80","191","2.5","4.8","0.00","0.00"
"14:44:58","95.9","74.1","49.7","29.80","221","2.3","4.8","0.00","0.00"
"14:49:57","96.4","74.1","48.9","29.79","343","3.6","13.2","0.00","0.00"
"14:54:59","95.9","73.2","48.2","29.79","275","2.8","6","0.00","0.00"
"14:59:58","95.6","73.8","49.8","29.79","194","2.8","8.4","0.00","0.00"
"15:04:55","95.5","74","50.2","29.79","212","0.6","4.8","0.00","0.00"
"15:09:56","95.2","73.4","49.7","29.79","320","2.7","7.2","0.00","0.00"
"15:14:59","94.9","73.5","50.2","29.79","356","2.4","6","0.00","0.00"
"15:19:58","94.7","73.6","50.7","29.79","348","1.7","4.8","0.00","0.00"
"15:24:56","95.2","74.4","51.3","29.79","236","2.5","6","0.00","0.00"
"15:29:59","96.5","75.4","51.1","29.79","193","0.7","3.5","0.00","0.00"
"15:34:57","97.6","74.9","48.5","29.79","193","1.4","3.6","0.00","0.00"
"15:39:56","97.4","74.4","48.1","29.79","239","1.3","8.4","0.00","0.00"
"15:44:59","96.3","74.5","49.9","29.79","336","1.4","6.9","0.00","0.00"
"15:49:58","95","74.1","51.2","29.78","296","1","3.5","0.00","0.00"
"15:54:56","94.4","74.5","52.9","29.78","284","1","2.4","0.00","0.00"
"15:59:58","94.6","74.4","52.3","29.78","164","1.3","3.6","0.00","0.00"
"16:04:56","94.6","74.1","51.7","29.78","129","1.2","3.6","0.00","0.00"
"16:09:56","94.6","74.5","52.5","29.78","5","0.6","2.4","0.00","0.00"
"16:14:56","94.8","75.1","53.1","29.78","25","1.7","3.6","0.00","0.00"
"16:19:58","95","75.1","52.9","29.78","36","0.9","3.5","0.00","0.00"
"16:24:56","94.7","74.8","52.8","29.78","33","1","3.6","0.00","0.00"
"16:29:59","94.2","75.6","55.1","29.78","348","2","6","0.00","0.00"
"16:34:57","93.8","76.2","56.7","29.78","342","1.5","7.2","0.00","0.00"
"16:39:57","93.2","76","57.5","29.78","35","2","3.6","0.00","0.00"
"16:44:59","92.8","75.5","57.3","29.78","98","2","6","0.00","0.00"
"16:49:57","92.8","75.4","57.2","29.78","71","2.4","3.6","0.00","0.00"
"16:54:55","92.4","75.6","58.1","29.78","100","2.2","6","0.00","0.00"
"16:59:59","92.4","75.7","58.4","29.78","120","2.1","6","0.00","0.00"
"17:04:57","92.1","75.8","59.2","29.78","49","2.2","8.4","0.00","0.00"
"17:09:58","92.1","76.1","59.7","29.78","110","2.2","8.1","0.00","0.00"
"17:14:57","92.2","75.9","59.1","29.78","133","1.9","6","0.00","0.00"
"17:19:59","92.4","76.5","59.9","29.78","135","1.8","6","0.00","0.00"
"17:24:58","92.4","76.1","59.2","29.78","132","2.5","5.8","0.00","0.00"
"17:29:57","92.5","76.4","59.7","29.78","95","1","2.4","0.00","0.00"
"17:34:59","92.3","76","59.2","29.78","89","1.9","3.6","0.00","0.00"
"17:39:56","91.8","75.7","59.6","29.78","97","1.5","3.6","0.00","0.00"
"17:44:57","91.3","76","61","29.78","79","1.8","3.6","0.00","0.00"
"17:49:58","90.6","75.3","61","29.78","115","1.8","6","0.00","0.00"
"17:54:56","90.1","75.3","62","29.78","127","1.5","4.6","0.00","0.00"
"17:59:59","89.6","75.3","63","29.78","126","0.9","2.4","0.00","0.00"
"18:04:57","89.3","75","63","29.78","126","1.3","2.4","0.00","0.00"
"18:09:57","89.1","75","63.2","29.78","126","0.3","2.4","0.00","0.00"
"18:14:57","89","75.1","63.8","29.78","126","1","4.8","0.00","0.00"
"18:19:59","88.9","75.1","63.9","29.78","126","1.3","4.6","0.00","0.00"
"18:24:57","88.8","75","64","29.78","126","0.8","2.4","0.00","0.00"
"18:29:56","88.7","75.3","64.6","29.78","126","0.5","2.4","0.00","0.00"
"18:34:58","88.6","75.4","65.2","29.78","126","1.3","3.6","0.00","0.00"
"18:39:57","88.6","75.4","65.3","29.78","123","0.8","3.6","0.00","0.00"
"18:44:56","88.5","75.5","65.6","29.78","84","0.2","2.3","0.00","0.00"
"18:49:59","88.5","75.6","65.9","29.78","89","0.4","2.4","0.00","0.00"
"18:54:57","88.5","75.8","66.2","29.78","89","0.1","1.2","0.00","0.00"
"18:59:59","88.6","75.8","66","29.79","89","0.3","2.4","0.00","0.00"
"19:04:57","88.5","75.6","65.9","29.79","72","1.2","6","0.00","0.00"
"19:09:57","87.1","74.6","66.5","29.79","343","1.7","4.8","0.00","0.00"
"19:14:57","85.3","74.4","70","29.80","358","1.4","4.8","0.00","0.00"
"19:19:59","84.1","74.6","73.2","29.80","355","1.1","4.8","0.00","0.00"
"19:24:58","83.1","74.8","76.1","29.80","5","0.8","3.6","0.00","0.00"
"19:29:57","82.1","75.1","79.4","29.80","20","0.6","2.4","0.00","0.00"
"19:34:56","81.4","75.2","81.6","29.80","61","1","3.6","0.00","0.00"
"19:39:56","80.6","74.7","82.1","29.80","101","0.8","4.8","0.00","0.00"
"19:44:59","80.3","74.8","83.6","29.81","38","1.4","3.6","0.00","0.00"
"19:49:58","79.9","74.6","84","29.81","100","1.2","4.8","0.00","0.00"
"19:54:57","79.6","74.3","84","29.81","105","0","1.2","0.00","0.00"
"19:59:56","79.5","74.4","84.5","29.81","105","0","1.2","0.00","0.00"
"20:04:58","79.5","74.6","85","29.81","105","0.2","2.4","0.00","0.00"
"20:09:58","79.4","74.6","85.3","29.81","17","1.4","4.8","0.00","0.00"
"20:14:57","79.2","74.4","85.3","29.81","5","0","1.2","0.00","0.00"
"20:19:57","79.1","74.4","85.5","29.80","5","0","1.2","0.00","0.00"
"20:24:56","79","74.4","85.8","29.80","5","1.3","2.4","0.00","0.00"
"20:29:58","78.8","74.3","86","29.81","5","0.7","2.4","0.00","0.00"
"20:34:59","78.7","74.2","86","29.81","5","0.7","2.4","0.00","0.00"
"20:39:57","78.6","74.2","86.1","29.81","5","0","0","0.00","0.00"
"20:44:58","78.6","74.1","86","29.82","5","0","0","0.00","0.00"
"20:49:56","78.5","74","86.3","29.82","5","0","0","0.00","0.00"
"20:54:57","78.4","74.2","87","29.82","5","0.2","3.6","0.00","0.00"
"20:59:58","78.5","74.3","87","29.82","5","0.1","3.5","0.00","0.00"
"21:04:59","78.6","74.4","87","29.82","5","0","0","0.00","0.00"
"21:09:58","78.7","74.5","87","29.82","5","0","0","0.00","0.00"
"21:14:56","78.7","74.5","87","29.82","5","0","0","0.00","0.00"
"21:19:58","78.7","74.6","87.3","29.82","5","0","0","0.00","0.00"
"21:24:59","78.6","74.4","87.1","29.82","5","0","0","0.00","0.00"
"21:29:56","78.5","74.6","88","29.83","5","0.1","2.4","0.00","0.00"
"21:34:57","78.5","74.6","88","29.83","5","0","0","0.00","0.00"
"21:39:56","78.4","74.5","88","29.83","5","0","0","0.00","0.00"
"21:44:57","78.3","74.4","88","29.83","5","0.2","1.2","0.00","0.00"
"21:49:58","78","74.4","88.5","29.83","5","0.7","3.6","0.00","0.00"
"21:54:59","77.9","74.4","89","29.83","5","0.1","2.3","0.00","0.00"
"21:59:57","77.8","74.3","89","29.83","5","0","0","0.00","0.00"
"22:04:57","77.7","74.2","89","29.83","5","0","0","0.00","0.00"
"22:09:56","77.5","74.2","89.7","29.83","5","0","0","0.00","0.00"
"22:14:58","77.3","74.1","90","29.83","5","0","0","0.00","0.00"
"22:19:56","77.3","74.1","90","29.83","5","0","0","0.00","0.00"
"22:24:57","77.2","74.1","90.3","29.83","5","0","0","0.00","0.00"
"22:29:58","77.2","74.4","91","29.83","5","0","1.2","0.00","0.00"
"22:34:59","77.2","74.4","91","29.83","5","0","1.2","0.00","0.00"
"22:39:58","77.2","74.4","91","29.83","5","0","1.2","0.00","0.00"
"22:44:59","77.2","74.1","90.1","29.83","5","0","0","0.00","0.00"
"22:49:57","77.2","74","90","29.83","5","0","0","0.00","0.00"
"22:54:58","77.1","73.9","90","29.83","5","1","2.4","0.00","0.00"
"22:59:59","77.1","73.9","90","29.83","5","0.8","2.4","0.00","0.00"
"23:04:56","77","73.8","90","29.83","5","0.4","2.4","0.00","0.00"
"23:09:59","76.9","73.7","90","29.83","5","0.1","1.2","0.00","0.00"
"23:14:57","76.8","73.6","90","29.83","5","0","0","0.00","0.00"
"23:19:58","76.7","73.5","90","29.82","5","0","0","0.00","0.00"
"23:24:59","76.5","73.7","90.9","29.82","5","0","0","0.00","0.00"
"23:29:57","76.4","73.6","91","29.83","5","0","0","0.00","0.00"
"23:34:58","76.2","73.4","91","29.83","5","0","0","0.00","0.00"
"23:39:56","76.1","73.3","91","29.83","5","0","0","0.00","0.00"
"23:44:58","76","73.5","91.9","29.83","5","0","0","0.00","0.00"
"23:49:59","75.9","73.4","92","29.83","5","0","0","0.00","0.00"
